SCP
0 1 1 1 1 1 1 0 0 0 0 0 0 0 0 0 0 0 0 0 0 0
0 0 1 1 1 1 1 0 0 0 0 0 0 0 0 0 0 0 0 0 0 0
0 0 1 1 1 1 1 0 0 0 0 0 0 0 0 0 0 0 0 0 0 0
0 0 0 0 0 0 0 0 0 0 0 0 0 0 0 0 0 0 0 0 0 0
0 0 0 0 0 0 0 0 0 0 0 0 0 0 0 0 0 0 0 0 0 0
0 0 0 0 0 0 0 0 0 0 0 0 0 0 0 0 0 0 0 0 0 0
0 0 0 0 0 0 0 0 0 0 0 0 0 0 0 0 0 0 0 0 0 0
0 0 0 0 0 0 0 0 0 0 0 0 0 0 0 0 0 0 0 0 0 0
0 0 0 0 0 0 0 0 0 0 0 0 0 0 0 0 0 0 0 0 0 0
0 0 0 0 0 0 0 0 0 0 0 0 0 0 0 0 0 0 0 0 0 0
0 0 0 0 0 0 0 0 0 0 0 0 0 0 0 0 0 0 0 0 0 0
0 0 0 0 0 0 0 0 0 0 0 0 0 0 0 0 0 0 0 0 0 0
0 0 0 0 0 0 0 0 0 0 0 0 0 0 0 0 0 0 0 0 0 0
0 0 0 0 0 0 0 0 0 0 0 0 0 0 0 0 0 0 0 0 0 0
Wind_Speed_500mb
90 91 90 88 85 83 78 77 67 67 61 47 41 42 45 46 49 47 42 39 36 35
96 96 95 91 89 85 79 76 68 68 65 55 46 47 46 44 46 44 42 39 36 36
96 96 97 95 95 91 87 82 69 74 69 63 53 51 47 45 48 45 41 38 38 40
99 97 96 97 96 92 91 89 79 75 74 71 66 55 47 42 44 50 42 42 43 40
94 96 98 98 95 88 90 84 79 78 80 76 68 58 51 47 53 44 43 47 45 40
83 88 88 87 86 83 80 75 76 75 79 77 74 64 53 49 53 51 50 49 45 38
67 71 72 76 74 72 73 70 70 75 76 71 79 66 58 57 57 53 53 51 44 36
58 61 66 67 70 73 72 70 67 70 73 74 74 66 64 61 58 57 55 49 40 34
54 58 63 63 68 74 75 73 73 75 72 83 68 66 61 57 60 57 52 44 38 33
54 58 60 61 64 71 73 71 76 81 70 80 62 65 58 60 57 54 47 41 36 34
50 50 50 50 54 57 59 70 68 76 66 64 66 62 64 62 57 50 45 40 34 30
49 49 48 48 48 49 60 72 77 65 73 65 64 66 66 62 56 51 46 39 32 29
48 50 50 50 52 55 57 62 72 73 67 64 68 69 66 59 54 51 45 37 33 26
51 51 51 52 57 63 69 74 73 71 68 68 67 66 64 61 55 45 37 32 27 28
Wind_Direction_500mb
240 240 242 243 243 245 244 242 240 236 234 236 241 236 243 248 249 246 244 242 241 249
242 241 239 240 239 242 243 244 240 236 234 229 237 235 240 251 246 242 237 237 237 245
245 244 244 241 239 238 240 240 237 232 233 230 235 240 234 247 236 235 233 235 238 238
247 244 243 241 238 237 237 239 235 229 229 229 229 231 236 243 229 225 226 239 229 231
243 242 241 240 238 237 237 238 233 226 224 227 226 227 235 237 220 223 238 228 227 221
244 242 240 241 238 235 235 239 233 227 225 225 226 223 226 228 229 232 230 224 218 219
243 244 243 240 240 238 234 233 228 230 227 225 228 218 225 223 224 223 218 213 213 218
247 244 244 241 237 236 233 232 230 227 224 230 213 220 216 221 223 215 210 210 213 221
249 247 248 245 240 236 232 227 233 217 229 210 218 214 214 222 213 208 210 212 216 222
250 249 248 245 240 236 233 223 221 218 218 215 213 214 215 209 206 208 209 214 219 225
249 242 241 238 233 230 224 216 213 219 204 217 211 211 205 201 204 207 211 215 219 223
247 244 233 228 221 216 218 220 211 212 217 210 212 205 203 202 205 209 213 213 212 225
247 243 237 227 219 211 212 218 218 214 212 213 206 203 203 206 211 213 211 207 220 221
247 244 238 230 225 220 217 216 216 214 211 206 205 206 207 209 213 211 211 212 223 238
Wind_Speed_850mb
90 91 90 88 85 83 78 77 67 67 61 47 41 42 45 46 49 47 42 39 36 35
96 96 95 91 89 85 79 76 68 68 65 55 46 47 46 44 46 44 42 39 36 36
96 96 97 95 95 91 87 82 69 74 69 63 53 51 47 45 48 45 41 38 38 40
99 97 96 97 96 92 91 89 79 75 74 71 66 55 47 42 44 50 42 42 43 40
94 96 98 98 95 88 90 84 79 78 80 76 68 58 51 47 53 44 43 47 45 40
83 88 88 87 86 83 80 75 76 75 79 77 74 64 53 49 53 51 50 49 45 38
67 71 72 76 74 72 73 70 70 75 76 71 79 66 58 57 57 53 53 51 44 36
58 61 66 67 70 73 72 70 67 70 73 74 74 66 64 61 58 57 55 49 40 34
54 58 63 63 68 74 75 73 73 75 72 83 68 66 61 57 60 57 52 44 38 33
54 58 60 61 64 71 73 71 76 81 70 80 62 65 58 60 57 54 47 41 36 34
50 50 50 50 54 57 59 70 68 76 66 64 66 62 64 62 57 50 45 40 34 30
49 49 48 48 48 49 60 72 77 65 73 65 64 66 66 62 56 51 46 39 32 29
48 50 50 50 52 55 57 62 72 73 67 64 68 69 66 59 54 51 45 37 33 26
51 51 51 52 57 63 69 74 73 71 68 68 67 66 64 61 55 45 37 32 27 28
Wind_Direction_850mb
240 240 242 243 243 245 244 242 240 236 234 236 241 236 243 248 249 246 244 242 241 249
242 241 239 240 239 242 243 244 240 236 234 229 237 235 240 251 246 242 237 237 237 245
245 244 244 241 239 238 240 240 237 232 233 230 235 240 234 247 236 235 233 235 238 238
247 244 243 241 238 237 237 239 235 229 229 229 229 231 236 243 229 225 226 239 229 231
243 242 241 240 238 237 237 238 233 226 224 227 226 227 235 237 220 223 238 228 227 221
244 242 240 241 238 235 235 239 233 227 225 225 226 223 226 228 229 232 230 224 218 219
243 244 243 240 240 238 234 233 228 230 227 225 228 218 225 223 224 223 218 213 213 218
247 244 244 241 237 236 233 232 230 227 224 230 213 220 216 221 223 215 210 210 213 221
249 247 248 245 240 236 232 227 233 217 229 210 218 214 214 222 213 208 210 212 216 222
250 249 248 245 240 236 233 223 221 218 218 215 213 214 215 209 206 208 209 214 219 225
249 242 241 238 233 230 224 216 213 219 204 217 211 211 205 201 204 207 211 215 219 223
247 244 233 228 221 216 218 220 211 212 217 210 212 205 203 202 205 209 213 213 212 225
247 243 237 227 219 211 212 218 218 214 212 213 206 203 203 206 211 213 211 207 220 221
247 244 238 230 225 220 217 216 216 214 211 206 205 206 207 209 213 211 211 212 223 238